Time,TemperatureF,DewpointF,PressureIn,WindDirection,WindDirectionDegrees,WindSpeedMPH,WindSpeedGustMPH,Humidity,HourlyPrecipIn,Conditions,Clouds,dailyrainin,SoftwareType,DateUTC
2013-05-06 00:00:00,58.9,48.0,29.80,SW,235,0.0,0.0,67,0.00,,---,0.00,VWS V14.01,2013-05-06 07:00:00,
2013-05-06 00:05:00,59.0,48.1,29.82,SW,235,0.0,0.0,67,0.00,,---,0.00,VWS V14.01,2013-05-06 07:05:00,
2013-05-06 00:10:00,59.0,47.7,29.82,SW,235,0.0,0.0,66,0.00,,---,0.00,VWS V14.01,2013-05-06 07:10:00,
2013-05-06 00:15:00,59.0,47.3,29.80,SW,235,0.0,3.0,65,0.00,,---,0.00,VWS V14.01,2013-05-06 07:15:00,
2013-05-06 00:20:00,58.8,47.1,29.81,SW,235,1.0,3.0,65,0.00,,---,0.00,VWS V14.01,2013-05-06 07:20:00,
2013-05-06 00:25:00,58.7,47.0,29.80,SW,236,1.0,3.0,65,0.00,,---,0.00,VWS V14.01,2013-05-06 07:25:00,
2013-05-06 00:30:00,58.7,47.0,29.82,SW,235,0.0,0.0,65,0.00,,---,0.00,VWS V14.01,2013-05-06 07:30:00,
2013-05-06 00:35:00,58.6,46.9,29.82,SW,235,0.0,1.0,65,0.00,,---,0.00,VWS V14.01,2013-05-06 07:35:00,
2013-05-06 00:40:00,58.5,47.2,29.81,SW,235,0.0,2.0,66,0.00,,---,0.00,VWS V14.01,2013-05-06 07:40:00,
2013-05-06 00:45:00,58.5,46.8,29.82,SW,235,0.0,2.0,65,0.00,,---,0.00,VWS V14.01,2013-05-06 07:45:00,
2013-05-06 00:50:00,58.5,47.2,29.82,SW,235,0.0,2.0,66,0.00,,---,0.00,VWS V14.01,2013-05-06 07:50:00,
2013-05-06 00:55:00,58.5,48.0,29.82,SW,235,0.0,2.0,68,0.00,,---,0.00,VWS V14.01,2013-05-06 07:55:00,
2013-05-06 01:01:00,58.4,47.9,29.85,SW,235,0.0,0.0,68,0.00,,---,0.00,VWS V14.01,2013-05-06 08:01:00,
2013-05-06 01:06:00,58.4,48.3,29.82,SW,236,1.0,2.0,69,0.00,,---,0.00,VWS V14.01,2013-05-06 08:06:00,
2013-05-06 01:11:00,58.4,48.7,29.84,SW,235,0.0,2.0,70,0.00,,---,0.00,VWS V14.01,2013-05-06 08:11:00,
2013-05-06 01:16:00,58.4,48.3,29.83,SW,235,0.0,2.0,69,0.00,,---,0.00,VWS V14.01,2013-05-06 08:16:00,
2013-05-06 01:21:00,58.3,48.6,29.82,SW,235,0.0,2.0,70,0.00,,---,0.00,VWS V14.01,2013-05-06 08:21:00,
2013-05-06 01:26:00,58.3,48.6,29.82,SW,235,0.0,2.0,70,0.00,,---,0.00,VWS V14.01,2013-05-06 08:26:00,
2013-05-06 01:31:00,58.4,48.7,29.84,SW,236,1.0,3.0,70,0.00,,---,0.00,VWS V14.01,2013-05-06 08:31:00,
2013-05-06 01:36:00,58.4,48.7,29.82,SW,235,0.0,3.0,70,0.00,,---,0.00,VWS V14.01,2013-05-06 08:36:00,
2013-05-06 01:41:00,58.5,48.8,29.83,SW,235,0.0,3.0,70,0.00,,---,0.00,VWS V14.01,2013-05-06 08:41:00,
2013-05-06 01:46:00,58.6,48.9,29.82,SW,235,0.0,3.0,70,0.00,,---,0.00,VWS V14.01,2013-05-06 08:46:00,
2013-05-06 01:54:00,58.4,49.0,29.82,SW,235,0.0,3.0,71,0.00,,---,0.00,VWS V14.01,2013-05-06 08:54:00,
2013-05-06 01:59:00,58.3,48.6,29.82,SW,236,0.0,3.0,70,0.00,,---,0.00,VWS V14.01,2013-05-06 08:59:00,
2013-05-06 02:04:00,58.1,48.8,29.82,SW,236,0.0,3.0,71,0.00,,---,0.00,VWS V14.01,2013-05-06 09:04:00,
2013-05-06 02:09:00,58.2,48.8,29.83,SW,235,1.0,3.0,71,0.00,,---,0.00,VWS V14.01,2013-05-06 09:09:00,
2013-05-06 02:14:00,58.2,48.8,29.81,SW,236,2.0,3.0,71,0.00,,---,0.00,VWS V14.01,2013-05-06 09:14:00,
2013-05-06 02:19:00,58.0,48.7,29.83,SW,236,0.0,3.0,71,0.00,,---,0.00,VWS V14.01,2013-05-06 09:19:00,
2013-05-06 02:24:00,58.1,48.8,29.83,SW,236,0.0,3.0,71,0.00,,---,0.00,VWS V14.01,2013-05-06 09:24:00,
2013-05-06 02:29:00,57.9,48.6,29.82,SW,235,0.0,3.0,71,0.00,,---,0.00,VWS V14.01,2013-05-06 09:29:00,
2013-05-06 02:34:00,57.9,48.6,29.82,SW,235,0.0,3.0,71,0.00,,---,0.00,VWS V14.01,2013-05-06 09:34:00,
2013-05-06 02:39:00,57.8,48.5,29.82,SW,235,0.0,3.0,71,0.00,,---,0.00,VWS V14.01,2013-05-06 09:39:00,
2013-05-06 02:44:00,57.7,48.8,29.82,SW,236,0.0,3.0,72,0.00,,---,0.00,VWS V14.01,2013-05-06 09:44:00,
2013-05-06 02:49:00,57.6,48.3,29.82,SW,236,0.0,3.0,71,0.00,,---,0.00,VWS V14.01,2013-05-06 09:49:00,
2013-05-06 02:54:00,57.6,48.7,29.81,SW,235,0.0,3.0,72,0.00,,---,0.00,VWS V14.01,2013-05-06 09:54:00,
2013-05-06 03:00:00,57.6,48.7,29.83,SW,235,0.0,3.0,72,0.00,,---,0.00,VWS V14.01,2013-05-06 10:00:00,
2013-05-06 03:05:00,57.6,48.7,29.83,SW,235,0.0,1.0,72,0.00,,---,0.00,VWS V14.01,2013-05-06 10:05:00,
2013-05-06 03:10:00,57.4,48.8,29.82,SW,235,0.0,2.0,73,0.00,,---,0.00,VWS V14.01,2013-05-06 10:10:00,
2013-05-06 03:15:00,57.4,48.5,29.84,WSW,239,1.0,4.0,72,0.00,,---,0.00,VWS V14.01,2013-05-06 10:15:00,
2013-05-06 03:20:00,57.5,48.6,29.81,WSW,239,0.0,4.0,72,0.00,,---,0.00,VWS V14.01,2013-05-06 10:20:00,
2013-05-06 03:25:00,57.4,48.5,29.82,WSW,239,0.0,4.0,72,0.00,,---,0.00,VWS V14.01,2013-05-06 10:25:00,
2013-05-06 03:30:00,57.3,48.4,29.84,WSW,240,0.0,1.0,72,0.00,,---,0.00,VWS V14.01,2013-05-06 10:30:00,
2013-05-06 03:35:00,57.3,48.4,29.84,WSW,240,0.0,3.0,72,0.00,,---,0.00,VWS V14.01,2013-05-06 10:35:00,
2013-05-06 03:40:00,57.3,48.7,29.82,WSW,239,2.0,3.0,73,0.00,,---,0.00,VWS V14.01,2013-05-06 10:40:00,
2013-05-06 03:45:00,57.1,48.5,29.80,WSW,239,0.0,3.0,73,0.00,,---,0.00,VWS V14.01,2013-05-06 10:45:00,
2013-05-06 03:50:00,57.2,48.3,29.82,WSW,239,0.0,3.0,72,0.00,,---,0.00,VWS V14.01,2013-05-06 10:50:00,
2013-05-06 03:55:00,57.2,48.6,29.83,WSW,239,0.0,3.0,73,0.00,,---,0.00,VWS V14.01,2013-05-06 10:55:00,
2013-05-06 04:00:00,57.1,48.5,29.83,WSW,239,0.0,0.0,73,0.00,,---,0.00,VWS V14.01,2013-05-06 11:00:00,
2013-05-06 04:05:00,57.2,48.6,29.80,WSW,240,0.0,2.0,73,0.00,,---,0.00,VWS V14.01,2013-05-06 11:05:00,
2013-05-06 04:10:00,57.2,49.0,29.82,WSW,239,0.0,2.0,74,0.00,,---,0.00,VWS V14.01,2013-05-06 11:10:00,
2013-05-06 04:15:00,57.0,48.8,29.82,WSW,239,1.0,3.0,74,0.00,,---,0.00,VWS V14.01,2013-05-06 11:15:00,
2013-05-06 04:20:00,57.0,48.8,29.82,WSW,239,0.0,3.0,74,0.00,,---,0.00,VWS V14.01,2013-05-06 11:20:00,
2013-05-06 04:25:00,57.0,48.8,29.82,WSW,239,1.0,3.0,74,0.00,,---,0.00,VWS V14.01,2013-05-06 11:25:00,
2013-05-06 04:30:00,56.8,48.6,29.82,WSW,240,1.0,2.0,74,0.00,,---,0.00,VWS V14.01,2013-05-06 11:30:00,
2013-05-06 04:35:00,56.8,48.6,29.82,WSW,239,0.0,2.0,74,0.00,,---,0.00,VWS V14.01,2013-05-06 11:35:00,
2013-05-06 04:40:00,56.7,48.9,29.84,WSW,239,0.0,2.0,75,0.00,,---,0.00,VWS V14.01,2013-05-06 11:40:00,
2013-05-06 04:45:00,56.7,48.9,29.82,WSW,239,0.0,4.0,75,0.00,,---,0.00,VWS V14.01,2013-05-06 11:45:00,
2013-05-06 04:50:00,56.5,48.7,29.82,WSW,239,0.0,4.0,75,0.00,,---,0.00,VWS V14.01,2013-05-06 11:50:00,
2013-05-06 04:56:00,56.5,48.7,29.82,WSW,239,0.0,4.0,75,0.00,,---,0.00,VWS V14.01,2013-05-06 11:56:00,
2013-05-06 05:01:00,56.4,48.9,29.82,WSW,240,1.0,3.0,76,0.00,,---,0.00,VWS V14.01,2013-05-06 12:01:00,
2013-05-06 05:06:00,56.3,48.8,29.83,WSW,240,1.0,3.0,76,0.00,,---,0.00,VWS V14.01,2013-05-06 12:06:00,
2013-05-06 05:11:00,56.4,48.6,29.83,WSW,239,1.0,3.0,75,0.00,,---,0.00,VWS V14.01,2013-05-06 12:11:00,
2013-05-06 05:16:00,56.2,48.8,29.82,WSW,239,3.0,3.0,76,0.00,,---,0.00,VWS V14.01,2013-05-06 12:16:00,
2013-05-06 05:21:00,56.4,48.6,29.83,WSW,240,0.0,3.0,75,0.00,,---,0.00,VWS V14.01,2013-05-06 12:21:00,
2013-05-06 05:26:00,56.4,48.9,29.82,WSW,239,0.0,3.0,76,0.00,,---,0.00,VWS V14.01,2013-05-06 12:26:00,
2013-05-06 05:31:00,56.4,48.9,29.82,WSW,239,0.0,0.0,76,0.00,,---,0.00,VWS V14.01,2013-05-06 12:31:00,
2013-05-06 05:36:00,56.4,48.9,29.82,WSW,239,0.0,2.0,76,0.00,,---,0.00,VWS V14.01,2013-05-06 12:36:00,
2013-05-06 05:41:00,56.4,48.6,29.84,WSW,239,0.0,3.0,75,0.00,,---,0.00,VWS V14.01,2013-05-06 12:41:00,
2013-05-06 05:46:00,56.3,48.5,29.83,WSW,240,0.0,3.0,75,0.00,,---,0.00,VWS V14.01,2013-05-06 12:46:00,
2013-05-06 05:51:00,56.4,48.6,29.83,WSW,239,0.0,3.0,75,0.00,,---,0.00,VWS V14.01,2013-05-06 12:51:00,
2013-05-06 05:56:00,56.3,48.5,29.84,WSW,239,0.0,3.0,75,0.00,,---,0.00,VWS V14.01,2013-05-06 12:56:00,
2013-05-06 06:01:00,56.2,48.4,29.80,WSW,240,0.0,3.0,75,0.00,,---,0.00,VWS V14.01,2013-05-06 13:01:00,
2013-05-06 06:06:00,56.1,48.3,29.82,WSW,239,0.0,3.0,75,0.00,,---,0.00,VWS V14.01,2013-05-06 13:06:00,
2013-05-06 06:11:00,55.9,48.1,29.82,WSW,239,0.0,3.0,75,0.00,,---,0.00,VWS V14.01,2013-05-06 13:11:00,
2013-05-06 06:16:00,55.7,47.9,29.84,WSW,239,0.0,3.0,75,0.00,,---,0.00,VWS V14.01,2013-05-06 13:16:00,
2013-05-06 06:21:00,55.4,48.0,29.84,WSW,239,1.0,3.0,76,0.00,,---,0.00,VWS V14.01,2013-05-06 13:21:00,
2013-05-06 06:26:00,55.2,47.8,29.81,WSW,239,0.0,3.0,76,0.00,,---,0.00,VWS V14.01,2013-05-06 13:26:00,
2013-05-06 06:31:00,55.2,48.1,29.81,WSW,239,0.0,4.0,77,0.00,,---,0.00,VWS V14.01,2013-05-06 13:31:00,
2013-05-06 06:36:00,55.1,48.4,29.86,WSW,239,0.0,4.0,78,0.00,,---,0.00,VWS V14.01,2013-05-06 13:36:00,
2013-05-06 06:41:00,55.0,48.3,29.84,WSW,240,3.0,4.0,78,0.00,,---,0.00,VWS V14.01,2013-05-06 13:41:00,
2013-05-06 06:47:00,55.1,48.4,29.82,WSW,239,0.0,4.0,78,0.00,,---,0.00,VWS V14.01,2013-05-06 13:47:00,
2013-05-06 06:52:00,55.1,48.4,29.83,WSW,239,0.0,4.0,78,0.00,,---,0.00,VWS V14.01,2013-05-06 13:52:00,
2013-05-06 06:57:00,55.2,48.5,29.84,WSW,240,0.0,4.0,78,0.00,,---,0.00,VWS V14.01,2013-05-06 13:57:00,
2013-05-06 07:02:00,55.2,48.5,29.83,WSW,240,0.0,0.0,78,0.00,,---,0.00,VWS V14.01,2013-05-06 14:02:00,
2013-05-06 07:07:00,55.3,48.6,29.83,WSW,240,0.0,1.0,78,0.00,,---,0.00,VWS V14.01,2013-05-06 14:07:00,
2013-05-06 07:12:00,55.3,48.6,29.84,WSW,239,0.0,1.0,78,0.00,,---,0.00,VWS V14.01,2013-05-06 14:12:00,
2013-05-06 07:17:00,55.6,48.9,29.85,WSW,239,0.0,1.0,78,0.00,,---,0.00,VWS V14.01,2013-05-06 14:17:00,
2013-05-06 07:22:00,55.6,48.9,29.84,WSW,240,0.0,1.0,78,0.00,,---,0.00,VWS V14.01,2013-05-06 14:22:00,
2013-05-06 07:27:00,55.6,48.9,29.84,WSW,239,0.0,1.0,78,0.00,,---,0.00,VWS V14.01,2013-05-06 14:27:00,
2013-05-06 07:32:00,55.8,49.0,29.85,WSW,240,0.0,1.0,78,0.00,,---,0.00,VWS V14.01,2013-05-06 14:32:00,
2013-05-06 07:37:00,56.0,49.2,29.84,WSW,239,0.0,2.0,78,0.00,,---,0.00,VWS V14.01,2013-05-06 14:37:00,
2013-05-06 07:42:00,56.0,48.9,29.85,WSW,239,0.0,2.0,77,0.00,,---,0.00,VWS V14.01,2013-05-06 14:42:00,
2013-05-06 07:47:00,56.1,49.0,29.86,WSW,239,0.0,2.0,77,0.00,,---,0.00,VWS V14.01,2013-05-06 14:47:00,
2013-05-06 07:52:00,56.3,48.8,29.87,WSW,239,0.0,3.0,76,0.00,,---,0.00,VWS V14.01,2013-05-06 14:52:00,
2013-05-06 07:57:00,56.6,49.1,29.85,WSW,239,0.0,3.0,76,0.00,,---,0.00,VWS V14.01,2013-05-06 14:57:00,
2013-05-06 08:02:00,56.7,49.2,29.88,WSW,239,3.0,4.0,76,0.00,,---,0.00,VWS V14.01,2013-05-06 15:02:00,
2013-05-06 08:07:00,57.1,49.6,29.83,WSW,239,0.0,4.0,76,0.00,,---,0.00,VWS V14.01,2013-05-06 15:07:00,
2013-05-06 08:12:00,57.3,49.5,29.84,WSW,239,0.0,4.0,75,0.00,,---,0.00,VWS V14.01,2013-05-06 15:12:00,
2013-05-06 08:17:00,57.6,49.8,29.85,WSW,239,0.0,4.0,75,0.00,,---,0.00,VWS V14.01,2013-05-06 15:17:00,
2013-05-06 08:22:00,57.9,50.0,29.86,WSW,239,0.0,4.0,75,0.00,,---,0.00,VWS V14.01,2013-05-06 15:22:00,
2013-05-06 08:27:00,58.2,50.0,29.86,WSW,239,0.0,4.0,74,0.00,,---,0.00,VWS V14.01,2013-05-06 15:27:00,
2013-05-06 08:32:00,58.8,50.2,29.87,WSW,239,2.0,2.0,73,0.00,,---,0.00,VWS V14.01,2013-05-06 15:32:00,
2013-05-06 08:37:00,59.5,50.8,29.86,WSW,239,1.0,6.0,73,0.00,,---,0.00,VWS V14.01,2013-05-06 15:37:00,
2013-05-06 08:43:00,59.9,50.1,29.88,SW,223,5.0,6.0,70,0.00,,---,0.00,VWS V14.01,2013-05-06 15:43:00,
2013-05-06 08:48:00,60.5,50.7,29.86,SW,222,1.0,6.0,70,0.00,,---,0.00,VWS V14.01,2013-05-06 15:48:00,
2013-05-06 08:53:00,61.0,50.8,29.89,SW,222,1.0,6.0,69,0.00,,---,0.00,VWS V14.01,2013-05-06 15:53:00,
2013-05-06 08:58:00,61.5,50.5,29.88,SW,222,2.0,6.0,67,0.00,,---,0.00,VWS V14.01,2013-05-06 15:58:00,
2013-05-06 09:03:00,62.1,49.8,29.87,SE,124,4.0,7.0,64,0.00,,---,0.00,VWS V14.01,2013-05-06 16:03:00,
2013-05-06 09:08:00,62.7,50.4,29.85,SE,124,0.0,7.0,64,0.00,,---,0.00,VWS V14.01,2013-05-06 16:08:00,
2013-05-06 09:13:00,63.0,51.1,29.87,SE,124,0.0,7.0,65,0.00,,---,0.00,VWS V14.01,2013-05-06 16:13:00,
2013-05-06 09:18:00,63.3,50.5,29.86,SE,124,3.0,7.0,63,0.00,,---,0.00,VWS V14.01,2013-05-06 16:18:00,
2013-05-06 09:23:00,64.1,49.5,29.86,ESE,108,2.0,7.0,59,0.00,,---,0.00,VWS V14.01,2013-05-06 16:23:00,
2013-05-06 09:28:00,64.4,50.2,29.86,East,101,0.0,7.0,60,0.00,,---,0.00,VWS V14.01,2013-05-06 16:28:00,
2013-05-06 09:33:00,64.5,50.3,29.85,East,101,0.0,2.0,60,0.00,,---,0.00,VWS V14.01,2013-05-06 16:33:00,
2013-05-06 09:38:00,64.4,49.8,29.88,East,101,2.0,3.0,59,0.00,,---,0.00,VWS V14.01,2013-05-06 16:38:00,
2013-05-06 09:43:00,64.3,49.7,29.87,East,101,0.0,3.0,59,0.00,,---,0.00,VWS V14.01,2013-05-06 16:43:00,
2013-05-06 09:48:00,64.0,49.4,29.85,East,101,0.0,4.0,59,0.00,,---,0.00,VWS V14.01,2013-05-06 16:48:00,
2013-05-06 09:53:00,63.8,50.5,29.86,East,101,1.0,4.0,62,0.00,,---,0.00,VWS V14.01,2013-05-06 16:53:00,
2013-05-06 09:58:00,63.7,50.5,29.87,East,101,2.0,4.0,62,0.00,,---,0.00,VWS V14.01,2013-05-06 16:58:00,
2013-05-06 10:03:00,63.5,49.4,29.89,SE,144,1.0,3.0,60,0.00,,---,0.00,VWS V14.01,2013-05-06 17:03:00,
2013-05-06 10:08:00,63.6,50.4,29.88,SW,218,2.0,4.0,62,0.00,,---,0.00,VWS V14.01,2013-05-06 17:08:00,
2013-05-06 10:13:00,63.6,49.9,29.87,SW,218,2.0,4.0,61,0.00,,---,0.00,VWS V14.01,2013-05-06 17:13:00,
2013-05-06 10:18:00,63.6,49.9,29.85,SW,218,2.0,4.0,61,0.00,,---,0.00,VWS V14.01,2013-05-06 17:18:00,
2013-05-06 10:24:00,63.9,50.2,29.87,SW,217,1.0,5.0,61,0.00,,---,0.00,VWS V14.01,2013-05-06 17:24:00,
2013-05-06 10:29:00,63.9,49.8,29.85,SW,217,0.0,5.0,60,0.00,,---,0.00,VWS V14.01,2013-05-06 17:29:00,
2013-05-06 10:34:00,64.1,50.8,29.89,SW,217,1.0,5.0,62,0.00,,---,0.00,VWS V14.01,2013-05-06 17:34:00,
2013-05-06 10:39:00,64.5,50.8,29.84,WSW,247,2.0,5.0,61,0.00,,---,0.00,VWS V14.01,2013-05-06 17:39:00,
2013-05-06 10:44:00,64.5,49.9,29.88,WSW,248,0.0,5.0,59,0.00,,---,0.00,VWS V14.01,2013-05-06 17:44:00,
2013-05-06 10:49:00,64.8,50.2,29.88,WSW,248,1.0,5.0,59,0.00,,---,0.00,VWS V14.01,2013-05-06 17:49:00,
2013-05-06 10:54:00,65.1,50.4,29.88,WSW,248,0.0,5.0,59,0.00,,---,0.00,VWS V14.01,2013-05-06 17:54:00,
2013-05-06 10:59:00,65.5,49.9,29.88,WSW,248,1.0,5.0,57,0.00,,---,0.00,VWS V14.01,2013-05-06 17:59:00,
2013-05-06 11:04:00,65.7,50.5,29.85,WSW,245,2.0,5.0,58,0.00,,---,0.00,VWS V14.01,2013-05-06 18:04:00,
2013-05-06 11:09:00,66.2,51.5,29.88,WSW,245,3.0,5.0,59,0.00,,---,0.00,VWS V14.01,2013-05-06 18:09:00,
2013-05-06 11:14:00,66.3,50.2,29.89,WSW,245,0.0,5.0,56,0.00,,---,0.00,VWS V14.01,2013-05-06 18:14:00,
2013-05-06 11:19:00,66.2,50.1,29.86,WSW,245,4.0,5.0,56,0.00,,---,0.00,VWS V14.01,2013-05-06 18:19:00,
2013-05-06 11:24:00,66.1,50.0,29.89,WSW,245,3.0,5.0,56,0.00,,---,0.00,VWS V14.01,2013-05-06 18:24:00,
2013-05-06 11:29:00,66.0,48.9,29.87,WSW,245,2.0,5.0,54,0.00,,---,0.00,VWS V14.01,2013-05-06 18:29:00,
2013-05-06 11:34:00,65.9,49.8,29.87,WSW,245,1.0,3.0,56,0.00,,---,0.00,VWS V14.01,2013-05-06 18:34:00,
2013-05-06 11:39:00,66.1,49.0,29.88,WSW,246,0.0,4.0,54,0.00,,---,0.00,VWS V14.01,2013-05-06 18:39:00,
2013-05-06 11:44:00,66.1,49.5,29.88,WSW,246,0.0,4.0,55,0.00,,---,0.00,VWS V14.01,2013-05-06 18:44:00,
2013-05-06 11:49:00,66.3,49.2,29.89,WSW,246,0.0,4.0,54,0.00,,---,0.00,VWS V14.01,2013-05-06 18:49:00,
2013-05-06 11:54:00,66.2,49.6,29.88,WSW,246,2.0,4.0,55,0.00,,---,0.00,VWS V14.01,2013-05-06 18:54:00,
2013-05-06 11:59:00,66.2,49.1,29.87,WSW,246,1.0,4.0,54,0.00,,---,0.00,VWS V14.01,2013-05-06 18:59:00,
2013-05-06 12:05:00,66.3,49.2,29.89,WSW,245,2.0,5.0,54,0.00,,---,0.00,VWS V14.01,2013-05-06 19:05:00,
2013-05-06 12:10:00,65.9,49.3,29.87,WSW,245,2.0,5.0,55,0.00,,---,0.00,VWS V14.01,2013-05-06 19:10:00,
2013-05-06 12:15:00,65.8,49.2,29.87,South,189,1.0,5.0,55,0.00,,---,0.00,VWS V14.01,2013-05-06 19:15:00,
2013-05-06 12:20:00,65.5,48.4,29.87,South,189,3.0,5.0,54,0.00,,---,0.00,VWS V14.01,2013-05-06 19:20:00,
2013-05-06 12:25:00,65.6,48.5,29.88,SSW,206,1.0,6.0,54,0.00,,---,0.00,VWS V14.01,2013-05-06 19:25:00,
2013-05-06 12:30:00,65.6,49.0,29.88,SSW,206,2.0,4.0,55,0.00,,---,0.00,VWS V14.01,2013-05-06 19:30:00,
2013-05-06 12:35:00,65.6,49.0,29.88,SSW,206,3.0,5.0,55,0.00,,---,0.00,VWS V14.01,2013-05-06 19:35:00,
2013-05-06 12:40:00,65.9,49.3,29.86,SSW,207,1.0,5.0,55,0.00,,---,0.00,VWS V14.01,2013-05-06 19:40:00,
2013-05-06 12:45:00,66.1,49.0,29.86,SSW,197,2.0,5.0,54,0.00,,---,0.00,VWS V14.01,2013-05-06 19:45:00,
2013-05-06 12:50:00,66.4,50.2,29.87,SSW,197,1.0,5.0,56,0.00,,---,0.00,VWS V14.01,2013-05-06 19:50:00,
2013-05-06 12:55:00,66.8,50.1,29.88,SSW,197,0.0,5.0,55,0.00,,---,0.00,VWS V14.01,2013-05-06 19:55:00,
2013-05-06 13:00:00,66.9,48.7,29.87,SSW,197,0.0,2.0,52,0.00,,---,0.00,VWS V14.01,2013-05-06 20:00:00,
2013-05-06 13:06:00,67.0,47.8,29.84,SSW,197,2.0,5.0,50,0.00,,---,0.00,VWS V14.01,2013-05-06 20:06:00,
2013-05-06 13:11:00,67.0,48.3,29.85,SSW,197,1.0,5.0,51,0.00,,---,0.00,VWS V14.01,2013-05-06 20:11:00,
2013-05-06 13:17:00,67.4,49.7,29.86,SSW,196,1.0,5.0,53,0.00,,---,0.00,VWS V14.01,2013-05-06 20:17:00,
2013-05-06 13:22:00,67.5,50.3,29.86,South,189,5.0,11.0,54,0.00,,---,0.00,VWS V14.01,2013-05-06 20:22:00,
2013-05-06 13:27:00,67.7,51.5,29.86,SW,220,7.0,11.0,56,0.00,,---,0.00,VWS V14.01,2013-05-06 20:27:00,
2013-05-06 13:32:00,68.0,51.7,29.87,SW,226,4.0,8.0,56,0.00,,---,0.00,VWS V14.01,2013-05-06 20:32:00,
2013-05-06 13:37:00,68.4,52.1,29.87,SW,232,2.0,8.0,56,0.00,,---,0.00,VWS V14.01,2013-05-06 20:37:00,
2013-05-06 13:42:00,69.0,51.7,29.87,WNW,290,4.0,8.0,54,0.00,,---,0.00,VWS V14.01,2013-05-06 20:42:00,
2013-05-06 13:47:00,69.3,52.5,29.88,SSW,213,5.0,8.0,55,0.00,,---,0.00,VWS V14.01,2013-05-06 20:47:00,
2013-05-06 13:52:00,68.8,51.5,29.87,SW,224,3.0,9.0,54,0.00,,---,0.00,VWS V14.01,2013-05-06 20:52:00,
2013-05-06 13:57:00,68.3,51.0,29.87,WSW,249,3.0,9.0,54,0.00,,---,0.00,VWS V14.01,2013-05-06 20:57:00,
2013-05-06 14:02:00,67.8,51.1,29.87,NW,305,3.0,7.0,55,0.00,,---,0.00,VWS V14.01,2013-05-06 21:02:00,
2013-05-06 14:07:00,67.4,51.2,29.87,WNW,291,4.0,7.0,56,0.00,,---,0.00,VWS V14.01,2013-05-06 21:07:00,
2013-05-06 14:12:00,67.0,51.3,29.86,West,265,7.0,7.0,57,0.00,,---,0.00,VWS V14.01,2013-05-06 21:12:00,
2013-05-06 14:17:00,66.7,51.0,29.86,WSW,237,4.0,7.0,57,0.00,,---,0.00,VWS V14.01,2013-05-06 21:17:00,
2013-05-06 14:22:00,66.6,51.4,29.89,SW,233,1.0,7.0,58,0.00,,---,0.00,VWS V14.01,2013-05-06 21:22:00,
2013-05-06 14:27:00,66.2,51.9,29.88,WNW,290,2.0,7.0,60,0.00,,---,0.00,VWS V14.01,2013-05-06 21:27:00,
2013-05-06 14:32:00,65.8,51.1,29.88,SW,231,3.0,6.0,59,0.00,,---,0.00,VWS V14.01,2013-05-06 21:32:00,
2013-05-06 14:37:00,65.4,50.2,29.88,West,279,1.0,6.0,58,0.00,,---,0.00,VWS V14.01,2013-05-06 21:37:00,
2013-05-06 14:42:00,65.1,50.4,29.86,WSW,256,2.0,6.0,59,0.00,,---,0.00,VWS V14.01,2013-05-06 21:42:00,
2013-05-06 14:48:00,65.1,50.9,29.89,WSW,256,3.0,6.0,60,0.00,,---,0.00,VWS V14.01,2013-05-06 21:48:00,
2013-05-06 14:53:00,65.0,50.3,29.88,NNW,348,1.0,6.0,59,0.00,,---,0.00,VWS V14.01,2013-05-06 21:53:00,
2013-05-06 14:58:00,64.8,50.2,29.90,NNW,343,2.0,6.0,59,0.00,,---,0.00,VWS V14.01,2013-05-06 21:58:00,
2013-05-06 15:03:00,64.8,50.6,29.87,SSW,209,2.0,4.0,60,0.00,,---,0.00,VWS V14.01,2013-05-06 22:03:00,
2013-05-06 15:08:00,64.6,51.7,29.87,SSW,192,1.0,5.0,63,0.00,,---,0.00,VWS V14.01,2013-05-06 22:08:00,
2013-05-06 15:13:00,64.4,53.2,29.86,WSW,245,3.0,5.0,67,0.00,,---,0.00,VWS V14.01,2013-05-06 22:13:00,
2013-05-06 15:18:00,64.0,53.6,29.90,WSW,245,3.0,5.0,69,0.00,,---,0.00,VWS V14.01,2013-05-06 22:18:00,
2013-05-06 15:23:00,63.6,54.0,29.90,WSW,245,0.0,5.0,71,0.00,,---,0.00,VWS V14.01,2013-05-06 22:23:00,
2013-05-06 15:28:00,63.4,54.6,29.85,WSW,245,0.0,5.0,73,0.01,,---,0.01,VWS V14.01,2013-05-06 22:28:00,
2013-05-06 15:33:00,63.3,54.9,29.88,WSW,245,0.0,1.0,74,0.01,,---,0.01,VWS V14.01,2013-05-06 22:33:00,
2013-05-06 15:38:00,62.8,54.0,29.88,WSW,245,0.0,2.0,73,0.02,,---,0.02,VWS V14.01,2013-05-06 22:38:00,
2013-05-06 15:44:00,62.7,54.7,29.87,WSW,245,0.0,2.0,75,0.02,,---,0.02,VWS V14.01,2013-05-06 22:44:00,
2013-05-06 15:49:00,62.5,54.8,29.87,WSW,245,0.0,2.0,76,0.02,,---,0.02,VWS V14.01,2013-05-06 22:49:00,
2013-05-06 15:54:00,62.6,54.9,29.88,WSW,245,0.0,2.0,76,0.02,,---,0.02,VWS V14.01,2013-05-06 22:54:00,
2013-05-06 15:59:00,62.5,54.8,29.88,WSW,245,1.0,2.0,76,0.02,,---,0.02,VWS V14.01,2013-05-06 22:59:00,
2013-05-06 16:04:00,62.6,54.9,29.86,WSW,245,0.0,1.0,76,0.02,,---,0.02,VWS V14.01,2013-05-06 23:04:00,
2013-05-06 16:09:00,62.5,54.8,29.86,WSW,245,0.0,2.0,76,0.03,,---,0.03,VWS V14.01,2013-05-06 23:09:00,
2013-05-06 16:15:00,62.7,54.3,29.84,WSW,245,0.0,3.0,74,0.03,,---,0.03,VWS V14.01,2013-05-06 23:15:00,
2013-05-06 16:20:00,62.7,54.3,29.85,WSW,245,0.0,3.0,74,0.03,,---,0.03,VWS V14.01,2013-05-06 23:20:00,
2013-05-06 16:25:00,62.9,54.5,29.88,WSW,245,0.0,3.0,74,0.03,,---,0.03,VWS V14.01,2013-05-06 23:25:00,
2013-05-06 16:30:00,62.9,53.8,29.87,WSW,245,0.0,3.0,72,0.03,,---,0.03,VWS V14.01,2013-05-06 23:30:00,
2013-05-06 16:35:00,63.0,54.6,29.87,WSW,245,0.0,1.0,74,0.02,,---,0.03,VWS V14.01,2013-05-06 23:35:00,
2013-05-06 16:40:00,63.0,54.2,29.86,WSW,245,0.0,2.0,73,0.02,,---,0.03,VWS V14.01,2013-05-06 23:40:00,
2013-05-06 16:45:00,63.2,54.8,29.89,WSW,245,0.0,2.0,74,0.02,,---,0.03,VWS V14.01,2013-05-06 23:45:00,
2013-05-06 16:50:00,63.1,54.7,29.88,WSW,245,0.0,3.0,74,0.02,,---,0.03,VWS V14.01,2013-05-06 23:50:00,
2013-05-06 16:55:00,63.1,54.3,29.88,WSW,245,0.0,3.0,73,0.02,,---,0.03,VWS V14.01,2013-05-06 23:55:00,
2013-05-06 17:00:00,63.3,55.6,29.87,WSW,245,0.0,1.0,76,0.01,,---,0.03,VWS V14.01,2013-05-07 00:00:00,
2013-05-06 17:05:00,63.2,54.8,29.89,WSW,245,0.0,2.0,74,0.01,,---,0.03,VWS V14.01,2013-05-07 00:05:00,
2013-05-06 17:10:00,63.0,54.6,29.84,WSW,245,0.0,2.0,74,0.01,,---,0.03,VWS V14.01,2013-05-07 00:10:00,
2013-05-06 17:15:00,63.0,55.0,29.86,WSW,245,0.0,2.0,75,0.01,,---,0.03,VWS V14.01,2013-05-07 00:15:00,
2013-05-06 17:20:00,62.9,54.5,29.85,WSW,245,0.0,2.0,74,0.01,,---,0.03,VWS V14.01,2013-05-07 00:20:00,
2013-05-06 17:25:00,62.7,55.0,29.87,WSW,245,0.0,3.0,76,0.01,,---,0.03,VWS V14.01,2013-05-07 00:25:00,
2013-05-06 17:30:00,62.7,54.3,29.85,WSW,245,1.0,2.0,74,0.00,,---,0.03,VWS V14.01,2013-05-07 00:30:00,
2013-05-06 17:35:00,62.7,54.3,29.86,WSW,245,2.0,3.0,74,0.00,,---,0.03,VWS V14.01,2013-05-07 00:35:00,
2013-05-06 17:40:00,62.7,53.9,29.87,WSW,245,1.0,5.0,73,0.00,,---,0.03,VWS V14.01,2013-05-07 00:40:00,
2013-05-06 17:45:00,62.6,51.9,29.85,WSW,245,2.0,5.0,68,0.00,,---,0.03,VWS V14.01,2013-05-07 00:45:00,
2013-05-06 17:50:00,62.6,51.5,29.90,West,274,2.0,5.0,67,0.00,,---,0.03,VWS V14.01,2013-05-07 00:50:00,
2013-05-06 17:55:00,62.7,50.8,29.85,West,280,6.0,7.0,65,0.00,,---,0.03,VWS V14.01,2013-05-07 00:55:00,
2013-05-06 18:00:00,62.6,50.7,29.90,NW,326,1.0,2.0,65,0.00,,---,0.03,VWS V14.01,2013-05-07 01:00:00,
2013-05-06 18:06:00,62.9,50.5,29.89,NW,326,0.0,10.0,64,0.00,,---,0.03,VWS V14.01,2013-05-07 01:06:00,
2013-05-06 18:11:00,63.0,50.7,29.89,WSW,245,0.0,10.0,64,0.00,,---,0.03,VWS V14.01,2013-05-07 01:11:00,
2013-05-06 18:16:00,63.2,50.0,29.88,WSW,248,1.0,10.0,62,0.00,,---,0.03,VWS V14.01,2013-05-07 01:16:00,
2013-05-06 18:21:00,63.5,50.3,29.89,WSW,246,6.0,10.0,62,0.00,,---,0.03,VWS V14.01,2013-05-07 01:21:00,
2013-05-06 18:26:00,63.8,50.5,29.84,West,270,2.0,10.0,62,0.00,,---,0.03,VWS V14.01,2013-05-07 01:26:00,
2013-05-06 18:31:00,63.8,50.1,29.84,West,277,4.0,7.0,61,0.00,,---,0.03,VWS V14.01,2013-05-07 01:31:00,
2013-05-06 18:36:00,63.5,49.8,29.90,WNW,291,2.0,7.0,61,0.00,,---,0.03,VWS V14.01,2013-05-07 01:36:00,
2013-05-06 18:41:00,63.3,50.5,29.85,NNW,333,2.0,7.0,63,0.00,,---,0.03,VWS V14.01,2013-05-07 01:41:00,
2013-05-06 18:46:00,63.2,50.4,29.87,NNW,345,2.0,7.0,63,0.00,,---,0.03,VWS V14.01,2013-05-07 01:46:00,
2013-05-06 18:51:00,63.4,50.6,29.88,SW,220,0.0,7.0,63,0.00,,---,0.03,VWS V14.01,2013-05-07 01:51:00,
2013-05-06 18:56:00,63.3,50.1,29.85,West,269,4.0,7.0,62,0.00,,---,0.03,VWS V14.01,2013-05-07 01:56:00,
2013-05-06 19:01:00,63.2,50.4,29.87,West,262,2.0,4.0,63,0.00,,---,0.03,VWS V14.01,2013-05-07 02:01:00,
2013-05-06 19:06:00,62.9,50.1,29.88,NNW,347,2.0,8.0,63,0.00,,---,0.03,VWS V14.01,2013-05-07 02:06:00,
2013-05-06 19:11:00,62.9,51.0,29.85,WNW,291,1.0,8.0,65,0.00,,---,0.03,VWS V14.01,2013-05-07 02:11:00,
2013-05-06 19:16:00,62.7,49.9,29.86,WNW,301,4.0,8.0,63,0.00,,---,0.03,VWS V14.01,2013-05-07 02:16:00,
2013-05-06 19:21:00,62.4,49.7,29.87,WNW,303,2.0,8.0,63,0.00,,---,0.03,VWS V14.01,2013-05-07 02:21:00,
2013-05-06 19:28:00,62.3,49.6,29.86,North,351,6.0,8.0,63,0.00,,---,0.03,VWS V14.01,2013-05-07 02:28:00,
2013-05-06 19:33:00,62.0,49.3,29.86,NW,309,3.0,5.0,63,0.00,,---,0.03,VWS V14.01,2013-05-07 02:33:00,
2013-05-06 19:38:00,62.0,49.3,29.89,NNW,335,2.0,5.0,63,0.00,,---,0.03,VWS V14.01,2013-05-07 02:38:00,
2013-05-06 19:43:00,61.7,49.0,29.90,NW,326,0.0,5.0,63,0.00,,---,0.03,VWS V14.01,2013-05-07 02:43:00,
2013-05-06 19:49:00,61.6,48.9,29.88,WNW,292,4.0,5.0,63,0.00,,---,0.03,VWS V14.01,2013-05-07 02:49:00,
2013-05-06 19:54:00,61.6,48.9,29.90,NNW,328,1.0,5.0,63,0.00,,---,0.03,VWS V14.01,2013-05-07 02:54:00,
2013-05-06 19:59:00,61.4,48.7,29.89,NW,322,1.0,5.0,63,0.00,,---,0.03,VWS V14.01,2013-05-07 02:59:00,
2013-05-06 20:04:00,61.2,48.5,29.86,West,269,3.0,8.0,63,0.00,,---,0.03,VWS V14.01,2013-05-07 03:04:00,
2013-05-06 20:09:00,61.2,48.5,29.91,NW,305,4.0,8.0,63,0.00,,---,0.03,VWS V14.01,2013-05-07 03:09:00,
2013-05-06 20:15:00,60.9,48.7,29.88,WNW,299,1.0,8.0,64,0.00,,---,0.03,VWS V14.01,2013-05-07 03:15:00,
2013-05-06 20:20:00,60.9,48.7,29.88,WNW,298,3.0,8.0,64,0.00,,---,0.03,VWS V14.01,2013-05-07 03:20:00,
2013-05-06 20:25:00,60.9,48.7,29.88,West,280,0.0,8.0,64,0.00,,---,0.03,VWS V14.01,2013-05-07 03:25:00,
2013-05-06 20:30:00,60.7,48.5,29.89,NNW,335,1.0,8.0,64,0.00,,---,0.03,VWS V14.01,2013-05-07 03:30:00,
2013-05-06 20:35:00,60.4,48.6,29.91,NNW,339,2.0,5.0,65,0.00,,---,0.03,VWS V14.01,2013-05-07 03:35:00,
2013-05-06 20:40:00,60.4,48.6,29.90,NNW,339,1.0,5.0,65,0.00,,---,0.03,VWS V14.01,2013-05-07 03:40:00,
2013-05-06 20:45:00,60.3,48.5,29.90,NNW,339,0.0,5.0,65,0.00,,---,0.03,VWS V14.01,2013-05-07 03:45:00,
2013-05-06 20:50:00,60.2,48.8,29.90,NNW,339,0.0,5.0,66,0.00,,---,0.03,VWS V14.01,2013-05-07 03:50:00,
2013-05-06 20:55:00,60.0,48.6,29.91,North,1,2.0,6.0,66,0.00,,---,0.03,VWS V14.01,2013-05-07 03:55:00,
2013-05-06 21:00:00,59.8,48.4,29.92,North,359,1.0,3.0,66,0.00,,---,0.03,VWS V14.01,2013-05-07 04:00:00,
2013-05-06 21:01:00,59.9,48.5,29.94,North,0,1.0,3.0,66,0.00,,---,0.03,VWS V14.01,2013-05-07 04:01:00,
2013-05-06 21:03:00,59.8,48.4,29.92,North,359,3.0,5.0,66,0.00,,---,0.03,VWS V14.01,2013-05-07 04:03:00,
2013-05-06 21:04:00,59.9,48.5,29.94,North,359,1.0,5.0,66,0.00,,---,0.03,VWS V14.01,2013-05-07 04:04:00,
2013-05-06 21:09:00,59.9,48.5,29.91,North,358,1.0,5.0,66,0.00,,---,0.03,VWS V14.01,2013-05-07 04:09:00,
2013-05-06 21:14:00,59.9,48.5,29.91,North,358,0.0,5.0,66,0.00,,---,0.03,VWS V14.01,2013-05-07 04:14:00,
2013-05-06 21:19:00,59.9,48.9,29.92,North,358,0.0,5.0,67,0.00,,---,0.03,VWS V14.01,2013-05-07 04:19:00,
2013-05-06 21:24:00,59.8,48.4,29.94,North,359,0.0,5.0,66,0.00,,---,0.03,VWS V14.01,2013-05-07 04:24:00,
2013-05-06 21:29:00,59.9,48.9,29.93,North,358,0.0,5.0,67,0.00,,---,0.03,VWS V14.01,2013-05-07 04:29:00,
2013-05-06 21:34:00,59.8,48.8,29.96,North,358,0.0,2.0,67,0.00,,---,0.03,VWS V14.01,2013-05-07 04:34:00,
2013-05-06 21:39:00,59.8,48.8,29.95,North,358,2.0,2.0,67,0.00,,---,0.03,VWS V14.01,2013-05-07 04:39:00,
2013-05-06 21:44:00,59.9,48.9,29.96,North,359,2.0,2.0,67,0.00,,---,0.03,VWS V14.01,2013-05-07 04:44:00,
2013-05-06 21:49:00,59.9,48.9,29.96,North,358,1.0,2.0,67,0.00,,---,0.03,VWS V14.01,2013-05-07 04:49:00,
2013-05-06 21:54:00,59.8,48.8,29.93,NNW,333,0.0,5.0,67,0.00,,---,0.03,VWS V14.01,2013-05-07 04:54:00,
2013-05-06 22:00:00,59.9,48.9,29.93,NW,320,0.0,2.0,67,0.00,,---,0.03,VWS V14.01,2013-05-07 05:00:00,
2013-05-06 22:05:00,59.8,48.8,29.94,NW,320,1.0,3.0,67,0.00,,---,0.03,VWS V14.01,2013-05-07 05:05:00,
2013-05-06 22:10:00,59.8,48.8,29.94,WNW,299,1.0,4.0,67,0.00,,---,0.03,VWS V14.01,2013-05-07 05:10:00,
2013-05-06 22:15:00,59.7,49.1,29.94,WNW,293,2.0,4.0,68,0.00,,---,0.03,VWS V14.01,2013-05-07 05:15:00,
2013-05-06 22:21:00,59.6,49.0,29.97,WSW,252,0.0,5.0,68,0.00,,---,0.03,VWS V14.01,2013-05-07 05:21:00,
2013-05-06 22:26:00,59.5,49.3,29.96,NW,308,3.0,5.0,69,0.00,,---,0.03,VWS V14.01,2013-05-07 05:26:00,
2013-05-06 22:31:00,59.4,48.8,29.94,NW,325,1.0,2.0,68,0.00,,---,0.03,VWS V14.01,2013-05-07 05:31:00,
2013-05-06 22:36:00,59.4,49.2,29.97,NW,324,0.0,3.0,69,0.00,,---,0.03,VWS V14.01,2013-05-07 05:36:00,
2013-05-06 22:41:00,59.4,49.2,30.00,NNW,327,0.0,3.0,69,0.00,,---,0.03,VWS V14.01,2013-05-07 05:41:00,
2013-05-06 22:46:00,59.3,49.1,29.95,NNW,331,2.0,3.0,69,0.00,,---,0.03,VWS V14.01,2013-05-07 05:46:00,
2013-05-06 22:51:00,59.2,49.4,29.95,NW,317,1.0,4.0,70,0.00,,---,0.03,VWS V14.01,2013-05-07 05:51:00,
2013-05-06 22:56:00,59.1,49.3,29.98,NW,323,1.0,5.0,70,0.00,,---,0.03,VWS V14.01,2013-05-07 05:56:00,
2013-05-06 23:01:00,59.2,49.4,29.97,NW,323,2.0,4.0,70,0.00,,---,0.03,VWS V14.01,2013-05-07 06:01:00,
2013-05-06 23:06:00,59.1,49.3,29.94,NW,323,0.0,4.0,70,0.00,,---,0.03,VWS V14.01,2013-05-07 06:06:00,
2013-05-06 23:11:00,59.0,49.2,29.99,NW,323,0.0,4.0,70,0.00,,---,0.03,VWS V14.01,2013-05-07 06:11:00,
2013-05-06 23:16:00,58.9,49.5,29.94,NW,323,1.0,4.0,71,0.00,,---,0.03,VWS V14.01,2013-05-07 06:16:00,
2013-05-06 23:21:00,58.8,49.8,29.99,NW,323,3.0,4.0,72,0.00,,---,0.03,VWS V14.01,2013-05-07 06:21:00,
2013-05-06 23:26:00,58.7,49.7,29.98,North,1,2.0,6.0,72,0.00,,---,0.03,VWS V14.01,2013-05-07 06:26:00,
2013-05-06 23:31:00,58.5,49.5,29.98,North,1,3.0,3.0,72,0.00,,---,0.03,VWS V14.01,2013-05-07 06:31:00,
2013-05-06 23:36:00,58.4,49.4,29.99,North,1,2.0,4.0,72,0.00,,---,0.03,VWS V14.01,2013-05-07 06:36:00,
2013-05-06 23:41:00,58.4,49.8,29.99,North,1,1.0,4.0,73,0.00,,---,0.03,VWS V14.01,2013-05-07 06:41:00,
2013-05-06 23:46:00,58.2,49.6,29.97,North,357,2.0,5.0,73,0.00,,---,0.03,VWS V14.01,2013-05-07 06:46:00,
2013-05-06 23:51:00,58.2,49.6,29.97,North,0,3.0,6.0,73,0.00,,---,0.03,VWS V14.01,2013-05-07 06:51:00,
2013-05-06 23:56:00,58.0,49.4,29.96,North,0,1.0,6.0,73,0.00,,---,0.03,VWS V14.01,2013-05-07 06:56:00,